owner,sensor,date,latitude,longitude,vertical_datum,wind_speed,wind_to_direction,wind_speed_of_gust,qcFlag 
TCOON,ioos:station:TCOON:524:1,2010-07-01T00:00:00Z,29.8672,-93.9310,0.0,7.0,37.0,11.1,'11111222,11111222,11111222' 
TCOON,ioos:station:TCOON:524:1,2010-07-01T00:06:00Z,29.8672,-93.9310,0.0,6.3,40.0,10.0,'11111222,11111222,11111222' 
TCOON,ioos:station:TCOON:524:1,2010-07-01T00:12:00Z,29.8672,-93.9310,0.0,6.4,34.0,10.2,'11111222,11111222,11111222' 
TCOON,ioos:station:TCOON:524:1,2010-07-01T00:18:00Z,29.8672,-93.9310,0.0,7.9,34.0,11.2,'11111222,11111222,11111222' 
TCOON,ioos:station:TCOON:524:1,2010-07-01T00:24:00Z,29.8672,-93.9310,0.0,8.0,36.0,11.1,'11111222,11111222,11111222' 
TCOON,ioos:station:TCOON:524:1,2010-07-01T00:30:00Z,29.8672,-93.9310,0.0,6.5,39.0,8.9,'11111222,11111222,11111222' 
TCOON,ioos:station:TCOON:524:1,2010-07-01T00:36:00Z,29.8672,-93.9310,0.0,6.9,36.0,11.1,'11111222,11111222,11111222' 
TCOON,ioos:station:TCOON:524:1,2010-07-01T00:42:00Z,29.8672,-93.9310,0.0,7.7,35.0,11.3,'11111222,11111222,11111222' 
TCOON,ioos:station:TCOON:524:1,2010-07-01T00:48:00Z,29.8672,-93.9310,0.0,7.4,36.0,11.0,'11111222,11111222,11111222' 
TCOON,ioos:station:TCOON:524:1,2010-07-01T00:54:00Z,29.8672,-93.9310,0.0,6.7,31.0,10.9,'11111222,11111222,11111222' 
TCOON,ioos:station:TCOON:524:1,2010-07-01T01:00:00Z,29.8672,-93.9310,0.0,5.2,30.0,9.2,'11111222,11111222,11111222' 
TCOON,ioos:station:TCOON:524:1,2010-07-01T02:06:00Z,29.8672,-93.9310,0.0,5.2,34.0,9.4,'11111222,11111222,11111222' 
TCOON,ioos:station:TCOON:524:1,2010-07-01T02:12:00Z,29.8672,-93.9310,0.0,6.2,38.0,8.8,'11111222,11111222,11111222' 
TCOON,ioos:station:TCOON:524:1,2010-07-01T02:18:00Z,29.8672,-93.9310,0.0,6.1,35.0,9.6,'11111222,11111222,11111222' 
TCOON,ioos:station:TCOON:524:1,2010-07-01T02:24:00Z,29.8672,-93.9310,0.0,5.9,39.0,9.3,'11111222,11111222,11111222' 
TCOON,ioos:station:TCOON:524:1,2010-07-01T02:30:00Z,29.8672,-93.9310,0.0,6.0,36.0,8.2,'11111222,11111222,11111222' 
TCOON,ioos:station:TCOON:524:1,2010-07-01T02:36:00Z,29.8672,-93.9310,0.0,6.4,35.0,8.9,'11111222,11111222,11111222' 
TCOON,ioos:station:TCOON:524:1,2010-07-01T02:42:00Z,29.8672,-93.9310,0.0,5.8,33.0,9.1,'11111222,11111222,11111222' 
TCOON,ioos:station:TCOON:524:1,2010-07-01T02:48:00Z,29.8672,-93.9310,0.0,5.8,35.0,8.7,'11111222,11111222,11111222' 
TCOON,ioos:station:TCOON:524:1,2010-07-01T02:54:00Z,29.8672,-93.9310,0.0,5.9,37.0,8.7,'11111222,11111222,11111222' 
TCOON,ioos:station:TCOON:524:1,2010-07-01T03:00:00Z,29.8672,-93.9310,0.0,5.4,32.0,7.8,'11111222,11111222,11111222' 
TCOON,ioos:station:TCOON:524:1,2010-07-01T03:06:00Z,29.8672,-93.9310,0.0,5.3,38.0,7.9,'11111222,11111222,11111222' 
TCOON,ioos:station:TCOON:524:1,2010-07-01T03:12:00Z,29.8672,-93.9310,0.0,4.8,38.0,7.7,'11111222,11111222,11111222' 
TCOON,ioos:station:TCOON:524:1,2010-07-01T03:18:00Z,29.8672,-93.9310,0.0,5.1,40.0,7.4,'11111222,11111222,11111222' 
TCOON,ioos:station:TCOON:524:1,2010-07-01T03:24:00Z,29.8672,-93.9310,0.0,6.1,38.0,8.8,'11111222,11111222,11111222' 
TCOON,ioos:station:TCOON:524:1,2010-07-01T03:30:00Z,29.8672,-93.9310,0.0,6.2,42.0,8.9,'11111222,11111222,11111222' 
TCOON,ioos:station:TCOON:524:1,2010-07-01T03:36:00Z,29.8672,-93.9310,0.0,6.2,37.0,9.3,'11111222,11111222,11111222' 
TCOON,ioos:station:TCOON:524:1,2010-07-01T03:42:00Z,29.8672,-93.9310,0.0,6.9,41.0,10.3,'11111222,11111222,11111222' 
TCOON,ioos:station:TCOON:524:1,2010-07-01T03:48:00Z,29.8672,-93.9310,0.0,5.3,38.0,9.1,'11111222,11111222,11111222' 
TCOON,ioos:station:TCOON:524:1,2010-07-01T03:54:00Z,29.8672,-93.9310,0.0,6.2,44.0,9.8,'11111222,11111222,11111222' 
TCOON,ioos:station:TCOON:524:1,2010-07-01T04:00:00Z,29.8672,-93.9310,0.0,6.4,41.0,9.2,'11111222,11111222,11111222' 
TCOON,ioos:station:TCOON:524:1,2010-07-01T04:06:00Z,29.8672,-93.9310,0.0,6.2,42.0,9.5,'11111222,11111222,11111222' 
TCOON,ioos:station:TCOON:524:1,2010-07-01T04:12:00Z,29.8672,-93.9310,0.0,5.9,43.0,9.9,'11111222,11111222,11111222' 
TCOON,ioos:station:TCOON:524:1,2010-07-01T04:18:00Z,29.8672,-93.9310,0.0,6.1,43.0,20.0,'11111222,11111222,11111222' 
TCOON,ioos:station:TCOON:524:1,2010-07-01T04:24:00Z,29.8672,-93.9310,0.0,5.7,38.0,8.2,'11111222,11111222,11111222' 
TCOON,ioos:station:TCOON:524:1,2010-07-01T04:30:00Z,29.8672,-93.9310,0.0,6.7,36.0,10.1,'11111222,11111222,11111222' 
TCOON,ioos:station:TCOON:524:1,2010-07-01T04:36:00Z,29.8672,-93.9310,0.0,6.3,34.0,9.2,'11111222,11111222,11111222' 
TCOON,ioos:station:TCOON:524:1,2010-07-01T04:42:00Z,29.8672,-93.9310,0.0,5.2,36.0,8.3,'11111222,11111222,11111222' 
TCOON,ioos:station:TCOON:524:1,2010-07-01T04:48:00Z,29.8672,-93.9310,0.0,6.4,36.0,9.0,'11111222,11111222,11111222' 
TCOON,ioos:station:TCOON:524:1,2010-07-01T04:54:00Z,29.8672,-93.9310,0.0,6.0,36.0,9.1,'11111222,11111222,11111222' 
TCOON,ioos:station:TCOON:524:1,2010-07-01T05:00:00Z,29.8672,-93.9310,0.0,5.7,36.0,8.3,'11111222,11111222,11111222' 
TCOON,ioos:station:TCOON:524:1,2010-07-01T05:06:00Z,29.8672,-93.9310,0.0,6.7,37.0,9.6,'11111222,11111222,11111222' 
TCOON,ioos:station:TCOON:524:1,2010-07-01T05:12:00Z,29.8672,-93.9310,0.0,5.2,34.0,8.0,'11111222,11111222,11111222' 
TCOON,ioos:station:TCOON:524:1,2010-07-01T05:18:00Z,29.8672,-93.9310,0.0,5.6,37.0,8.8,'11111222,11111222,11111222' 
TCOON,ioos:station:TCOON:524:1,2010-07-01T05:24:00Z,29.8672,-93.9310,0.0,5.9,39.0,9.7,'11111222,11111222,11111222' 
TCOON,ioos:station:TCOON:524:1,2010-07-01T05:30:00Z,29.8672,-93.9310,0.0,6.9,35.0,9.9,'11111222,11111222,11111222' 
TCOON,ioos:station:TCOON:524:1,2010-07-01T05:36:00Z,29.8672,-93.9310,0.0,6.7,38.0,9.8,'11111222,11111222,11111222' 
TCOON,ioos:station:TCOON:524:1,2010-07-01T05:42:00Z,29.8672,-93.9310,0.0,5.5,41.0,8.3,'11111222,11111222,11111222' 
TCOON,ioos:station:TCOON:524:1,2010-07-01T05:48:00Z,29.8672,-93.9310,0.0,6.5,35.0,9.5,'11111222,11111222,11111222' 
TCOON,ioos:station:TCOON:524:1,2010-07-01T05:54:00Z,29.8672,-93.9310,0.0,6.9,39.0,9.7,'11111222,11111222,11111222' 
TCOON,ioos:station:TCOON:524:1,2010-07-01T06:00:00Z,29.8672,-93.9310,0.0,5.9,40.0,8.9,'11111222,11111222,11111222' 
TCOON,ioos:station:TCOON:524:1,2010-07-01T06:06:00Z,29.8672,-93.9310,0.0,5.5,41.0,8.2,'11111222,11111222,11111222' 
TCOON,ioos:station:TCOON:524:1,2010-07-01T06:12:00Z,29.8672,-93.9310,0.0,5.7,45.0,7.8,'11111222,11111222,11111222' 
TCOON,ioos:station:TCOON:524:1,2010-07-01T06:18:00Z,29.8672,-93.9310,0.0,5.7,41.0,8.0,'11111222,11111222,11111222' 
TCOON,ioos:station:TCOON:524:1,2010-07-01T06:24:00Z,29.8672,-93.9310,0.0,5.6,40.0,8.2,'11111222,11111222,11111222' 
TCOON,ioos:station:TCOON:524:1,2010-07-01T06:30:00Z,29.8672,-93.9310,0.0,5.9,42.0,8.9,'11111222,11111222,11111222' 
TCOON,ioos:station:TCOON:524:1,2010-07-01T06:36:00Z,29.8672,-93.9310,0.0,6.2,45.0,9.3,'11111222,11111222,11111222' 
TCOON,ioos:station:TCOON:524:1,2010-07-01T06:42:00Z,29.8672,-93.9310,0.0,5.4,39.0,8.1,'11111222,11111222,11111222' 
TCOON,ioos:station:TCOON:524:1,2010-07-01T06:48:00Z,29.8672,-93.9310,0.0,5.8,38.0,7.8,'11111222,11111222,11111222' 
TCOON,ioos:station:TCOON:524:1,2010-07-01T06:54:00Z,29.8672,-93.9310,0.0,6.1,42.0,9.1,'11111222,11111222,11111222' 
TCOON,ioos:station:TCOON:524:1,2010-07-01T07:00:00Z,29.8672,-93.9310,0.0,5.8,36.0,9.8,'11111222,11111222,11111222' 
TCOON,ioos:station:TCOON:524:1,2010-07-01T07:06:00Z,29.8672,-93.9310,0.0,6.4,39.0,8.8,'11111222,11111222,11111222' 
TCOON,ioos:station:TCOON:524:1,2010-07-01T07:12:00Z,29.8672,-93.9310,0.0,6.1,37.0,8.0,'11111222,11111222,11111222' 
TCOON,ioos:station:TCOON:524:1,2010-07-01T07:18:00Z,29.8672,-93.9310,0.0,6.4,39.0,9.5,'11111222,11111222,11111222' 
TCOON,ioos:station:TCOON:524:1,2010-07-01T07:24:00Z,29.8672,-93.9310,0.0,6.7,42.0,9.8,'11111222,11111222,11111222' 
TCOON,ioos:station:TCOON:524:1,2010-07-01T07:30:00Z,29.8672,-93.9310,0.0,6.0,43.0,9.2,'11111222,11111222,11111222' 
TCOON,ioos:station:TCOON:524:1,2010-07-01T07:36:00Z,29.8672,-93.9310,0.0,6.9,40.0,10.8,'11111222,11111222,11111222' 
TCOON,ioos:station:TCOON:524:1,2010-07-01T07:42:00Z,29.8672,-93.9310,0.0,6.5,37.0,8.7,'11111222,11111222,11111222' 
TCOON,ioos:station:TCOON:524:1,2010-07-01T07:48:00Z,29.8672,-93.9310,0.0,6.4,41.0,10.4,'11111222,11111222,11111222' 
TCOON,ioos:station:TCOON:524:1,2010-07-01T07:54:00Z,29.8672,-93.9310,0.0,6.2,37.0,10.1,'11111222,11111222,11111222' 
TCOON,ioos:station:TCOON:524:1,2010-07-01T08:00:00Z,29.8672,-93.9310,0.0,7.3,39.0,11.2,'11111222,11111222,11111222' 
TCOON,ioos:station:TCOON:524:1,2010-07-01T08:06:00Z,29.8672,-93.9310,0.0,6.5,40.0,9.2,'11111222,11111222,11111222' 
TCOON,ioos:station:TCOON:524:1,2010-07-01T08:12:00Z,29.8672,-93.9310,0.0,6.8,41.0,9.7,'11111222,11111222,11111222' 
TCOON,ioos:station:TCOON:524:1,2010-07-01T08:18:00Z,29.8672,-93.9310,0.0,6.1,38.0,10.0,'11111222,11111222,11111222' 
TCOON,ioos:station:TCOON:524:1,2010-07-01T08:24:00Z,29.8672,-93.9310,0.0,6.7,38.0,10.4,'11111222,11111222,11111222' 
TCOON,ioos:station:TCOON:524:1,2010-07-01T08:30:00Z,29.8672,-93.9310,0.0,6.3,39.0,9.6,'11111222,11111222,11111222' 
TCOON,ioos:station:TCOON:524:1,2010-07-01T08:36:00Z,29.8672,-93.9310,0.0,6.6,39.0,9.7,'11111222,11111222,11111222' 
TCOON,ioos:station:TCOON:524:1,2010-07-01T08:42:00Z,29.8672,-93.9310,0.0,5.9,31.0,10.1,'11111222,11111222,11111222' 
TCOON,ioos:station:TCOON:524:1,2010-07-01T08:48:00Z,29.8672,-93.9310,0.0,6.5,38.0,10.0,'11111222,11111222,11111222' 
TCOON,ioos:station:TCOON:524:1,2010-07-01T08:54:00Z,29.8672,-93.9310,0.0,6.3,38.0,9.2,'11111222,11111222,11111222' 
TCOON,ioos:station:TCOON:524:1,2010-07-01T09:00:00Z,29.8672,-93.9310,0.0,6.4,41.0,8.7,'11111222,11111222,11111222' 
TCOON,ioos:station:TCOON:524:1,2010-07-01T09:06:00Z,29.8672,-93.9310,0.0,6.9,37.0,9.7,'11111222,11111222,11111222' 
TCOON,ioos:station:TCOON:524:1,2010-07-01T09:12:00Z,29.8672,-93.9310,0.0,6.6,35.0,8.7,'11111222,11111222,11111222' 
TCOON,ioos:station:TCOON:524:1,2010-07-01T09:18:00Z,29.8672,-93.9310,0.0,6.4,37.0,9.5,'11111222,11111222,11111222' 
TCOON,ioos:station:TCOON:524:1,2010-07-01T09:24:00Z,29.8672,-93.9310,0.0,6.0,36.0,8.6,'11111222,11111222,11111222' 
TCOON,ioos:station:TCOON:524:1,2010-07-01T09:30:00Z,29.8672,-93.9310,0.0,5.1,32.0,8.4,'11111222,11111222,11111222' 
TCOON,ioos:station:TCOON:524:1,2010-07-01T09:36:00Z,29.8672,-93.9310,0.0,5.7,33.0,7.7,'11111222,11111222,11111222' 
TCOON,ioos:station:TCOON:524:1,2010-07-01T09:42:00Z,29.8672,-93.9310,0.0,6.7,35.0,9.1,'11111222,11111222,11111222' 
TCOON,ioos:station:TCOON:524:1,2010-07-01T09:48:00Z,29.8672,-93.9310,0.0,4.6,36.0,7.9,'11111222,11111222,11111222' 
TCOON,ioos:station:TCOON:524:1,2010-07-01T09:54:00Z,29.8672,-93.9310,0.0,5.6,33.0,8.7,'11111222,11111222,11111222' 
TCOON,ioos:station:TCOON:524:1,2010-07-01T10:00:00Z,29.8672,-93.9310,0.0,4.8,30.0,7.7,'11111222,11111222,11111222' 
TCOON,ioos:station:TCOON:524:1,2010-07-01T10:06:00Z,29.8672,-93.9310,0.0,4.8,35.0,7.3,'11111222,11111222,11111222' 
TCOON,ioos:station:TCOON:524:1,2010-07-01T10:12:00Z,29.8672,-93.9310,0.0,3.6,30.0,6.5,'11111222,11111222,11111222' 
TCOON,ioos:station:TCOON:524:1,2010-07-01T10:18:00Z,29.8672,-93.9310,0.0,4.2,32.0,7.1,'11111222,11111222,11111222' 
TCOON,ioos:station:TCOON:524:1,2010-07-01T10:24:00Z,29.8672,-93.9310,0.0,4.8,34.0,7.2,'11111222,11111222,11111222' 
TCOON,ioos:station:TCOON:524:1,2010-07-01T10:30:00Z,29.8672,-93.9310,0.0,4.8,38.0,7.6,'11111222,11111222,11111222' 
TCOON,ioos:station:TCOON:524:1,2010-07-01T10:36:00Z,29.8672,-93.9310,0.0,4.0,34.0,6.1,'11111222,11111222,11111222' 
TCOON,ioos:station:TCOON:524:1,2010-07-01T10:42:00Z,29.8672,-93.9310,0.0,4.1,28.0,7.0,'11111222,11111222,11111222' 
TCOON,ioos:station:TCOON:524:1,2010-07-01T10:48:00Z,29.8672,-93.9310,0.0,4.5,34.0,7.5,'11111222,11111222,11111222' 
TCOON,ioos:station:TCOON:524:1,2010-07-01T10:54:00Z,29.8672,-93.9310,0.0,5.3,35.0,7.6,'11111222,11111222,11111222' 
TCOON,ioos:station:TCOON:524:1,2010-07-01T11:00:00Z,29.8672,-93.9310,0.0,6.4,35.0,9.4,'11111222,11111222,11111222' 
TCOON,ioos:station:TCOON:524:1,2010-07-01T11:06:00Z,29.8672,-93.9310,0.0,5.7,43.0,9.2,'11111222,11111222,11111222' 
TCOON,ioos:station:TCOON:524:1,2010-07-01T11:12:00Z,29.8672,-93.9310,0.0,4.8,44.0,7.0,'11111222,11111222,11111222' 
TCOON,ioos:station:TCOON:524:1,2010-07-01T11:18:00Z,29.8672,-93.9310,0.0,5.9,41.0,8.7,'11111222,11111222,11111222' 
TCOON,ioos:station:TCOON:524:1,2010-07-01T11:24:00Z,29.8672,-93.9310,0.0,5.7,44.0,8.2,'11111222,11111222,11111222' 
TCOON,ioos:station:TCOON:524:1,2010-07-01T11:30:00Z,29.8672,-93.9310,0.0,5.3,33.0,7.4,'11111222,11111222,11111222' 
TCOON,ioos:station:TCOON:524:1,2010-07-01T11:36:00Z,29.8672,-93.9310,0.0,4.4,33.0,6.9,'11111222,11111222,11111222' 
TCOON,ioos:station:TCOON:524:1,2010-07-01T11:42:00Z,29.8672,-93.9310,0.0,5.1,33.0,8.2,'11111222,11111222,11111222' 
TCOON,ioos:station:TCOON:524:1,2010-07-01T11:48:00Z,29.8672,-93.9310,0.0,3.8,31.0,7.1,'11111222,11111222,11111222' 
TCOON,ioos:station:TCOON:524:1,2010-07-01T11:54:00Z,29.8672,-93.9310,0.0,3.1,24.0,6.6,'11111222,11111222,11111222' 
TCOON,ioos:station:TCOON:524:1,2010-07-01T12:00:00Z,29.8672,-93.9310,0.0,4.4,30.0,7.4,'11111222,11111222,11111222' 
TCOON,ioos:station:TCOON:524:1,2010-07-01T12:06:00Z,29.8672,-93.9310,0.0,4.5,30.0,7.0,'11111222,11111222,11111222' 
TCOON,ioos:station:TCOON:524:1,2010-07-01T12:12:00Z,29.8672,-93.9310,0.0,4.2,30.0,6.4,'11111222,11111222,11111222' 
TCOON,ioos:station:TCOON:524:1,2010-07-01T12:18:00Z,29.8672,-93.9310,0.0,3.4,29.0,5.4,'11111222,11111222,11111222' 
TCOON,ioos:station:TCOON:524:1,2010-07-01T12:24:00Z,29.8672,-93.9310,0.0,3.5,31.0,5.6,'11111222,11111222,11111222' 
TCOON,ioos:station:TCOON:524:1,2010-07-01T12:30:00Z,29.8672,-93.9310,0.0,4.4,26.0,7.2,'11111222,11111222,11111222' 
TCOON,ioos:station:TCOON:524:1,2010-07-01T12:36:00Z,29.8672,-93.9310,0.0,4.9,30.0,7.5,'11111222,11111222,11111222' 
TCOON,ioos:station:TCOON:524:1,2010-07-01T12:42:00Z,29.8672,-93.9310,0.0,4.6,30.0,7.7,'11111222,11111222,11111222' 
TCOON,ioos:station:TCOON:524:1,2010-07-01T12:48:00Z,29.8672,-93.9310,0.0,5.2,28.0,7.8,'11111222,11111222,11111222' 
TCOON,ioos:station:TCOON:524:1,2010-07-01T12:54:00Z,29.8672,-93.9310,0.0,4.3,30.0,7.1,'11111222,11111222,11111222' 
TCOON,ioos:station:TCOON:524:1,2010-07-01T13:00:00Z,29.8672,-93.9310,0.0,6.7,32.0,9.5,'11111222,11111222,11111222' 
TCOON,ioos:station:TCOON:524:1,2010-07-01T13:06:00Z,29.8672,-93.9310,0.0,6.3,37.0,9.4,'11111222,11111222,11111222' 
TCOON,ioos:station:TCOON:524:1,2010-07-01T13:12:00Z,29.8672,-93.9310,0.0,5.5,30.0,9.6,'11111222,11111222,11111222' 
TCOON,ioos:station:TCOON:524:1,2010-07-01T13:18:00Z,29.8672,-93.9310,0.0,6.1,37.0,7.8,'11111222,11111222,11111222' 
TCOON,ioos:station:TCOON:524:1,2010-07-01T13:24:00Z,29.8672,-93.9310,0.0,5.4,39.0,9.0,'11111222,11111222,11111222' 
TCOON,ioos:station:TCOON:524:1,2010-07-01T13:30:00Z,29.8672,-93.9310,0.0,5.9,39.0,8.7,'11111222,11111222,11111222' 
TCOON,ioos:station:TCOON:524:1,2010-07-01T13:36:00Z,29.8672,-93.9310,0.0,6.1,40.0,9.2,'11111222,11111222,11111222' 
TCOON,ioos:station:TCOON:524:1,2010-07-01T13:42:00Z,29.8672,-93.9310,0.0,6.0,37.0,9.6,'11111222,11111222,11111222' 
TCOON,ioos:station:TCOON:524:1,2010-07-01T13:48:00Z,29.8672,-93.9310,0.0,6.2,36.0,25.0,'11111222,11111222,11111222' 
TCOON,ioos:station:TCOON:524:1,2010-07-01T13:54:00Z,29.8672,-93.9310,0.0,6.9,36.0,9.5,'11111222,11111222,11111222' 
TCOON,ioos:station:TCOON:524:1,2010-07-01T14:00:00Z,29.8672,-93.9310,0.0,6.7,35.0,9.3,'11111222,11111222,11111222' 
TCOON,ioos:station:TCOON:524:1,2010-07-01T14:06:00Z,29.8672,-93.9310,0.0,7.3,37.0,11.1,'11111222,11111222,11111222' 
TCOON,ioos:station:TCOON:524:1,2010-07-01T14:12:00Z,29.8672,-93.9310,0.0,6.1,38.0,9.3,'11111222,11111222,11111222' 
TCOON,ioos:station:TCOON:524:1,2010-07-01T14:18:00Z,29.8672,-93.9310,0.0,7.5,39.0,11.1,'11111222,11111222,11111222' 
TCOON,ioos:station:TCOON:524:1,2010-07-01T14:24:00Z,29.8672,-93.9310,0.0,7.2,34.0,11.7,'11111222,11111222,11111222' 
TCOON,ioos:station:TCOON:524:1,2010-07-01T14:30:00Z,29.8672,-93.9310,0.0,6.7,38.0,10.9,'11111222,11111222,11111222' 
TCOON,ioos:station:TCOON:524:1,2010-07-01T14:36:00Z,29.8672,-93.9310,0.0,7.0,37.0,9.4,'11111222,11111222,11111222' 
TCOON,ioos:station:TCOON:524:1,2010-07-01T14:42:00Z,29.8672,-93.9310,0.0,6.1,40.0,9.6,'11111222,11111222,11111222' 
TCOON,ioos:station:TCOON:524:1,2010-07-01T14:48:00Z,29.8672,-93.9310,0.0,6.3,41.0,10.4,'11111222,11111222,11111222' 
TCOON,ioos:station:TCOON:524:1,2010-07-01T14:54:00Z,29.8672,-93.9310,0.0,6.5,38.0,8.7,'11111222,11111222,11111222' 
TCOON,ioos:station:TCOON:524:1,2010-07-01T15:00:00Z,29.8672,-93.9310,0.0,6.1,38.0,9.0,'11111222,11111222,11111222' 
TCOON,ioos:station:TCOON:524:1,2010-07-01T15:06:00Z,29.8672,-93.9310,0.0,5.4,42.0,7.9,'11111222,11111222,11111222' 
TCOON,ioos:station:TCOON:524:1,2010-07-01T15:12:00Z,29.8672,-93.9310,0.0,6.6,45.0,8.7,'11111222,11111222,11111222' 
TCOON,ioos:station:TCOON:524:1,2010-07-01T15:18:00Z,29.8672,-93.9310,0.0,5.9,41.0,9.2,'11111222,11111222,11111222' 
TCOON,ioos:station:TCOON:524:1,2010-07-01T15:24:00Z,29.8672,-93.9310,0.0,6.9,43.0,11.9,'11111222,11111222,11111222' 
TCOON,ioos:station:TCOON:524:1,2010-07-01T15:30:00Z,29.8672,-93.9310,0.0,6.5,39.0,10.9,'11111222,11111222,11111222' 
TCOON,ioos:station:TCOON:524:1,2010-07-01T15:36:00Z,29.8672,-93.9310,0.0,6.4,36.0,10.5,'11111222,11111222,11111222' 
TCOON,ioos:station:TCOON:524:1,2010-07-01T15:42:00Z,29.8672,-93.9310,0.0,7.3,36.0,10.6,'11111222,11111222,11111222' 
TCOON,ioos:station:TCOON:524:1,2010-07-01T15:48:00Z,29.8672,-93.9310,0.0,6.7,40.0,9.9,'11111222,11111222,11111222' 
TCOON,ioos:station:TCOON:524:1,2010-07-01T15:54:00Z,29.8672,-93.9310,0.0,7.8,41.0,12.3,'11111222,11111222,11111222' 
TCOON,ioos:station:TCOON:524:1,2010-07-01T16:00:00Z,29.8672,-93.9310,0.0,6.9,38.0,9.1,'11111222,11111222,11111222' 
TCOON,ioos:station:TCOON:524:1,2010-07-01T16:06:00Z,29.8672,-93.9310,0.0,6.8,42.0,10.2,'11111222,11111222,11111222' 
TCOON,ioos:station:TCOON:524:1,2010-07-01T16:12:00Z,29.8672,-93.9310,0.0,6.0,42.0,10.6,'11111222,11111222,11111222' 
TCOON,ioos:station:TCOON:524:1,2010-07-01T16:18:00Z,29.8672,-93.9310,0.0,6.2,48.0,9.1,'11111222,11111222,11111222' 
TCOON,ioos:station:TCOON:524:1,2010-07-01T16:24:00Z,29.8672,-93.9310,0.0,6.8,47.0,9.9,'11111222,11111222,11111222' 
TCOON,ioos:station:TCOON:524:1,2010-07-01T16:30:00Z,29.8672,-93.9310,0.0,6.9,45.0,11.8,'11111222,11111222,11111222' 
TCOON,ioos:station:TCOON:524:1,2010-07-01T16:36:00Z,29.8672,-93.9310,0.0,6.9,47.0,9.4,'11111222,11111222,11111222' 
TCOON,ioos:station:TCOON:524:1,2010-07-01T16:42:00Z,29.8672,-93.9310,0.0,7.3,50.0,10.8,'11111222,11111222,11111222' 
TCOON,ioos:station:TCOON:524:1,2010-07-01T16:48:00Z,29.8672,-93.9310,0.0,7.7,50.0,10.0,'11111222,11111222,11111222' 
TCOON,ioos:station:TCOON:524:1,2010-07-01T16:54:00Z,29.8672,-93.9310,0.0,6.2,42.0,8.5,'11111222,11111222,11111222' 
TCOON,ioos:station:TCOON:524:1,2010-07-01T17:00:00Z,29.8672,-93.9310,0.0,6.8,50.0,9.9,'11111222,11111222,11111222' 
TCOON,ioos:station:TCOON:524:1,2010-07-01T17:06:00Z,29.8672,-93.9310,0.0,7.2,47.0,10.1,'11111222,11111222,11111222' 
TCOON,ioos:station:TCOON:524:1,2010-07-01T17:12:00Z,29.8672,-93.9310,0.0,6.7,44.0,11.0,'11111222,11111222,11111222' 
TCOON,ioos:station:TCOON:524:1,2010-07-01T17:18:00Z,29.8672,-93.9310,0.0,7.7,49.0,11.0,'11111222,11111222,11111222' 
TCOON,ioos:station:TCOON:524:1,2010-07-01T17:24:00Z,29.8672,-93.9310,0.0,6.4,42.0,9.8,'11111222,11111222,11111222' 
TCOON,ioos:station:TCOON:524:1,2010-07-01T17:30:00Z,29.8672,-93.9310,0.0,6.0,48.0,8.9,'11111222,11111222,11111222' 
TCOON,ioos:station:TCOON:524:1,2010-07-01T17:36:00Z,29.8672,-93.9310,0.0,6.8,42.0,9.4,'11111222,11111222,11111222' 
TCOON,ioos:station:TCOON:524:1,2010-07-01T17:42:00Z,29.8672,-93.9310,0.0,5.8,44.0,8.5,'11111222,11111222,11111222' 
TCOON,ioos:station:TCOON:524:1,2010-07-01T17:48:00Z,29.8672,-93.9310,0.0,5.2,43.0,7.8,'11111222,11111222,11111222' 
TCOON,ioos:station:TCOON:524:1,2010-07-01T17:54:00Z,29.8672,-93.9310,0.0,6.8,49.0,9.7,'11111222,11111222,11111222' 
TCOON,ioos:station:TCOON:524:1,2010-07-01T18:00:00Z,29.8672,-93.9310,0.0,5.1,47.0,8.4,'11111222,11111222,11111222' 
TCOON,ioos:station:TCOON:524:1,2010-07-01T18:06:00Z,29.8672,-93.9310,0.0,5.4,43.0,7.7,'11111222,11111222,11111222' 
TCOON,ioos:station:TCOON:524:1,2010-07-01T18:12:00Z,29.8672,-93.9310,0.0,5.0,52.0,8.3,'11111222,11111222,11111222' 
TCOON,ioos:station:TCOON:524:1,2010-07-01T18:18:00Z,29.8672,-93.9310,0.0,5.3,46.0,7.8,'11111222,11111222,11111222' 
TCOON,ioos:station:TCOON:524:1,2010-07-01T18:24:00Z,29.8672,-93.9310,0.0,5.1,50.0,7.8,'11111222,11111222,11111222' 
TCOON,ioos:station:TCOON:524:1,2010-07-01T18:30:00Z,29.8672,-93.9310,0.0,5.8,43.0,9.9,'11111222,11111222,11111222' 
TCOON,ioos:station:TCOON:524:1,2010-07-01T18:36:00Z,29.8672,-93.9310,0.0,5.4,46.0,8.2,'11111222,11111222,11111222' 
TCOON,ioos:station:TCOON:524:1,2010-07-01T18:42:00Z,29.8672,-93.9310,0.0,6.8,74.0,10.0,'11111222,11111222,11111222' 
TCOON,ioos:station:TCOON:524:1,2010-07-01T18:48:00Z,29.8672,-93.9310,0.0,5.9,70.0,9.3,'11111222,11111222,11111222' 
TCOON,ioos:station:TCOON:524:1,2010-07-01T18:54:00Z,29.8672,-93.9310,0.0,9.6,69.0,12.0,'11111222,11111222,11111222' 
TCOON,ioos:station:TCOON:524:1,2010-07-01T19:00:00Z,29.8672,-93.9310,0.0,6.3,72.0,9.6,'11111222,11111222,11111222' 
TCOON,ioos:station:TCOON:524:1,2010-07-01T19:06:00Z,29.8672,-93.9310,0.0,8.7,69.0,11.5,'11111222,11111222,11111222' 
TCOON,ioos:station:TCOON:524:1,2010-07-01T19:12:00Z,29.8672,-93.9310,0.0,8.0,68.0,10.2,'11111222,11111222,11111222' 
TCOON,ioos:station:TCOON:524:1,2010-07-01T19:18:00Z,29.8672,-93.9310,0.0,8.6,69.0,10.9,'11111222,11111222,11111222' 
TCOON,ioos:station:TCOON:524:1,2010-07-01T19:24:00Z,29.8672,-93.9310,0.0,6.4,76.0,8.7,'11111222,11111222,11111222' 
TCOON,ioos:station:TCOON:524:1,2010-07-01T19:30:00Z,29.8672,-93.9310,0.0,6.0,76.0,7.9,'11111222,11111222,11111222' 
TCOON,ioos:station:TCOON:524:1,2010-07-01T19:36:00Z,29.8672,-93.9310,0.0,5.5,83.0,8.7,'11111222,11111222,11111222' 
TCOON,ioos:station:TCOON:524:1,2010-07-01T19:42:00Z,29.8672,-93.9310,0.0,6.6,77.0,9.5,'11111222,11111222,11111222' 
TCOON,ioos:station:TCOON:524:1,2010-07-01T19:48:00Z,29.8672,-93.9310,0.0,4.8,79.0,8.0,'11111222,11111222,11111222' 
TCOON,ioos:station:TCOON:524:1,2010-07-01T19:54:00Z,29.8672,-93.9310,0.0,5.9,81.0,8.9,'11111222,11111222,11111222' 
TCOON,ioos:station:TCOON:524:1,2010-07-01T20:00:00Z,29.8672,-93.9310,0.0,5.8,88.0,8.9,'11111222,11111222,11111222' 
TCOON,ioos:station:TCOON:524:1,2010-07-01T20:06:00Z,29.8672,-93.9310,0.0,5.8,84.0,9.2,'11111222,11111222,11111222' 
TCOON,ioos:station:TCOON:524:1,2010-07-01T20:12:00Z,29.8672,-93.9310,0.0,5.6,80.0,9.0,'11111222,11111222,11111222' 
TCOON,ioos:station:TCOON:524:1,2010-07-01T20:18:00Z,29.8672,-93.9310,0.0,4.8,79.0,7.7,'11111222,11111222,11111222' 
TCOON,ioos:station:TCOON:524:1,2010-07-01T20:24:00Z,29.8672,-93.9310,0.0,5.4,81.0,8.8,'11111222,11111222,11111222' 
TCOON,ioos:station:TCOON:524:1,2010-07-01T20:30:00Z,29.8672,-93.9310,0.0,5.9,72.0,7.6,'11111222,11111222,11111222' 
TCOON,ioos:station:TCOON:524:1,2010-07-01T20:36:00Z,29.8672,-93.9310,0.0,5.2,83.0,8.6,'11111222,11111222,11111222' 
TCOON,ioos:station:TCOON:524:1,2010-07-01T20:42:00Z,29.8672,-93.9310,0.0,5.3,75.0,8.2,'11111222,11111222,11111222' 
TCOON,ioos:station:TCOON:524:1,2010-07-01T20:48:00Z,29.8672,-93.9310,0.0,5.8,75.0,10.0,'11111222,11111222,11111222' 
TCOON,ioos:station:TCOON:524:1,2010-07-01T20:54:00Z,29.8672,-93.9310,0.0,7.4,103.0,12.1,'11111222,11111222,11111222' 
TCOON,ioos:station:TCOON:524:1,2010-07-01T21:00:00Z,29.8672,-93.9310,0.0,7.6,100.0,10.7,'11111222,11111222,11111222' 
TCOON,ioos:station:TCOON:524:1,2010-07-01T21:06:00Z,29.8672,-93.9310,0.0,6.1,102.0,9.1,'11111222,11111222,11111222' 
TCOON,ioos:station:TCOON:524:1,2010-07-01T21:12:00Z,29.8672,-93.9310,0.0,5.8,108.0,8.7,'11111222,11111222,11111222' 
TCOON,ioos:station:TCOON:524:1,2010-07-01T21:18:00Z,29.8672,-93.9310,0.0,4.7,94.0,6.7,'11111222,11111222,11111222' 
TCOON,ioos:station:TCOON:524:1,2010-07-01T21:24:00Z,29.8672,-93.9310,0.0,4.8,89.0,8.8,'11111222,11111222,11111222' 